Shenandoah, IA

7:10 AM CST on February 07, 2016 (GMT -0600)
Shenandoah Municipal

Weather History for KSDA - November, 2014

Change the Weather History Date:

Wednesday, November 12, 2014

  Actual Average (KOMA) Record (KOMA)
Temperature  
Mean Temperature 20 °F 41 °F  
Max Temperature 23 °F 51 °F 74 °F (2005)
Min Temperature 17 °F 31 °F 1 °F (1911)
Degree Days  
Heating Degree Days 45 24  
Month to date heating degree days 256  
Since 1 July heating degree days 741  
Cooling Degree Days 0 0  
Month to date cooling degree days 0  
Year to date cooling degree days 1112  
Moisture  
Dew Point 10 °F    
Average Humidity 67    
Maximum Humidity 86    
Minimum Humidity 50    
Precipitation  
Precipitation 0.00 in 0.06 in 1.97 in (2010)
Month to date precipitation 0.71  
Year to date precipitation 28.65  
Snow  
Snow 0.00 in 0.00 in - ()
Month to date snowfall 0.4  
Since 1 July snowfall 0.7  
Snow Depth -    
Sea Level Pressure  
Sea Level Pressure 30.51 in    
Wind  
Wind Speed 12 mph (NW)    
Max Wind Speed 18 mph    
Max Gust Speed 24 mph    
Visibility 10 miles    
Events Snow    
T = Trace of Precipitation, MM = Missing Value Source: NWS Daily Summary

Daily Weather History Graph

Daily Weather History Graph

Search for Another Location

Airport or City:

Trip Planner

Search our weather history database for the weather conditions in past years. The results will help you decide how hot, cold, wet, or windy it might be!

Date:

Astronomy

Nov. 12, 2014 Rise Set
Actual Time 7:05 AM CST 5:06 PM CST
Civil Twilight 6:35 AM CST 5:35 PM CST
Nautical Twilight 6:02 AM CST 6:08 PM CST
Astronomical Twilight 5:30 AM CST 6:40 PM CST
Moon 10:27 PM CST (11/12) 11:51 AM CST (11/12)
Length of Visible Light 10h 59m
Length of Day
10h 01m
Waning Gibbous, 68% of the Moon is Illuminated
Nov 12
Waning Gibbous
Nov 14
Last Quarter
Nov 22
New
Nov 29
First Quarter
Dec 6
Full

Hourly Weather History & Observations

Time (CST) Temp. Windchill Dew Point Humidity Pressure Visibility Wind Dir Wind Speed Gust Speed Precip Events Conditions
12:15 AM 21.2 °F 10.1 °F 10.4 °F 63% 30.45 in 10.0 mi NW 10.4 mph - N/A   Mostly Cloudy
12:35 AM 19.4 °F 5.5 °F 10.4 °F 68% 30.45 in 10.0 mi NNW 15.0 mph 20.7 mph N/A   Scattered Clouds
12:55 AM 19.4 °F 7.2 °F 10.4 °F 68% 30.46 in 10.0 mi NW 11.5 mph 18.4 mph N/A   Mostly Cloudy
1:15 AM 19.4 °F 8.6 °F 10.4 °F 68% 30.46 in 10.0 mi NW 9.2 mph 20.7 mph N/A   Mostly Cloudy
1:35 AM 19.4 °F 7.9 °F 10.4 °F 68% 30.45 in 10.0 mi NW 10.4 mph 18.4 mph N/A   Overcast
1:55 AM 19.4 °F 6.0 °F 10.4 °F 68% 30.45 in 10.0 mi NNW 13.8 mph - N/A   Overcast
2:15 AM 19.4 °F 7.2 °F 10.4 °F 68% 30.47 in 10.0 mi NW 11.5 mph 17.3 mph N/A   Overcast
2:35 AM 19.4 °F 6.0 °F 8.6 °F 63% 30.47 in 10.0 mi NW 13.8 mph 19.6 mph N/A   Mostly Cloudy
2:55 AM 19.4 °F 7.2 °F 8.6 °F 63% 30.47 in 10.0 mi NW 11.5 mph 19.6 mph N/A   Overcast
3:15 AM 19.4 °F 8.6 °F 8.6 °F 63% 30.48 in 10.0 mi NW 9.2 mph 15.0 mph N/A   Overcast
3:35 AM 19.4 °F 7.2 °F 8.6 °F 63% 30.48 in 10.0 mi NW 11.5 mph - N/A   Overcast
3:55 AM 19.4 °F 7.2 °F 8.6 °F 63% 30.48 in 10.0 mi NW 11.5 mph - N/A   Overcast
4:15 AM 19.4 °F 7.2 °F 8.6 °F 63% 30.48 in 10.0 mi NW 11.5 mph 19.6 mph N/A   Overcast
4:35 AM 19.4 °F 7.2 °F 8.6 °F 63% 30.48 in - NW 11.5 mph 20.7 mph N/A   Overcast
4:55 AM 19.4 °F 7.2 °F 8.6 °F 63% 30.49 in 10.0 mi NW 11.5 mph 19.6 mph N/A   Overcast
5:15 AM 17.6 °F 2.7 °F 8.6 °F 68% 30.49 in 10.0 mi WNW 16.1 mph - N/A   Overcast
5:35 AM 17.6 °F 1.7 °F 8.6 °F 68% 30.49 in 10.0 mi NW 18.4 mph - N/A   Overcast
5:55 AM 17.6 °F 3.7 °F 8.6 °F 68% 30.49 in 10.0 mi NW 13.8 mph 20.7 mph N/A   Overcast
6:15 AM 17.6 °F 3.2 °F 8.6 °F 68% 30.50 in 10.0 mi NW 15.0 mph - N/A   Overcast
6:35 AM 17.6 °F 3.2 °F 8.6 °F 68% 30.49 in 10.0 mi NW 15.0 mph 24.2 mph N/A   Overcast
6:55 AM 17.6 °F 3.2 °F 8.6 °F 68% 30.50 in 10.0 mi NW 15.0 mph 21.9 mph N/A   Overcast
7:15 AM 17.6 °F 5.0 °F 8.6 °F 68% 30.50 in 10.0 mi NW 11.5 mph 17.3 mph N/A   Overcast
7:35 AM 17.6 °F 2.7 °F 8.6 °F 68% 30.51 in 10.0 mi NW 16.1 mph 24.2 mph N/A   Overcast
7:55 AM 17.6 °F 4.3 °F 8.6 °F 68% 30.52 in 10.0 mi NW 12.7 mph 20.7 mph N/A   Mostly Cloudy
8:15 AM 17.6 °F 3.7 °F 8.6 °F 68% 30.52 in 10.0 mi NW 13.8 mph - N/A   Partly Cloudy
8:35 AM 17.6 °F 4.3 °F 8.6 °F 68% 30.52 in 10.0 mi NW 12.7 mph 21.9 mph N/A   Partly Cloudy
8:55 AM 17.6 °F 3.2 °F 8.6 °F 68% 30.53 in 10.0 mi NW 15.0 mph - N/A   Partly Cloudy
9:15 AM 17.6 °F 3.2 °F 8.6 °F 68% 30.54 in 10.0 mi NW 15.0 mph - N/A   Clear
9:35 AM 17.6 °F 2.7 °F 8.6 °F 68% 30.55 in 10.0 mi WNW 16.1 mph 21.9 mph N/A   Mostly Cloudy
9:55 AM 17.6 °F 2.7 °F 6.8 °F 63% 30.55 in 10.0 mi NW 16.1 mph - N/A   Scattered Clouds
10:15 AM 17.6 °F 3.7 °F 8.6 °F 68% 30.55 in 10.0 mi WNW 13.8 mph - N/A   Partly Cloudy
10:35 AM 17.6 °F 2.7 °F 8.6 °F 68% 30.55 in 10.0 mi WNW 16.1 mph - N/A   Partly Cloudy
10:55 AM 19.4 °F 6.0 °F 8.6 °F 63% 30.55 in 10.0 mi NW 13.8 mph 21.9 mph N/A   Clear
11:15 AM 19.4 °F 5.0 °F 8.6 °F 63% 30.55 in 10.0 mi WNW 16.1 mph - N/A   Clear
11:35 AM 19.4 °F 6.0 °F 8.6 °F 63% 30.54 in 10.0 mi WNW 13.8 mph - N/A   Clear
11:55 AM 21.2 °F 8.3 °F 8.6 °F 58% 30.54 in 10.0 mi WNW 13.8 mph 19.6 mph N/A   Partly Cloudy
12:15 PM 21.2 °F 8.3 °F 6.8 °F 54% 30.53 in 10.0 mi WNW 13.8 mph 21.9 mph N/A   Partly Cloudy
12:35 PM 21.2 °F 8.3 °F 8.6 °F 58% 30.52 in 10.0 mi West 13.8 mph 20.7 mph N/A   Partly Cloudy
12:55 PM 21.2 °F 8.3 °F 8.6 °F 58% 30.51 in 10.0 mi WNW 13.8 mph 23.0 mph N/A   Partly Cloudy
1:15 PM 21.2 °F 6.8 °F 6.8 °F 54% 30.51 in 10.0 mi WNW 17.3 mph 23.0 mph N/A   Scattered Clouds
1:35 PM 21.2 °F 8.3 °F 6.8 °F 54% 30.51 in 10.0 mi WNW 13.8 mph - N/A   Mostly Cloudy
1:55 PM 21.2 °F 10.1 °F 6.8 °F 54% 30.51 in 10.0 mi NW 10.4 mph 17.3 mph N/A   Mostly Cloudy
2:15 PM 23.0 °F 11.7 °F 6.8 °F 50% 30.51 in 10.0 mi NW 11.5 mph 17.3 mph N/A   Mostly Cloudy
2:35 PM 21.2 °F 11.7 °F 6.8 °F 54% 30.51 in 10.0 mi WNW 8.1 mph - N/A   Scattered Clouds
2:55 PM 23.0 °F 13.9 °F 8.6 °F 54% 30.50 in 10.0 mi West 8.1 mph 17.3 mph N/A   Mostly Cloudy
3:15 PM 23.0 °F 13.1 °F 8.6 °F 54% 30.50 in 10.0 mi NW 9.2 mph - N/A   Mostly Cloudy
3:35 PM 23.0 °F 14.7 °F 10.4 °F 59% 30.50 in 10.0 mi NW 6.9 mph - N/A   Mostly Cloudy
3:55 PM 21.2 °F 12.6 °F 10.4 °F 63% 30.50 in 9.0 mi NW 6.9 mph - N/A   Mostly Cloudy
4:15 PM 23.0 °F 13.9 °F 10.4 °F 59% 30.50 in 10.0 mi NNW 8.1 mph - N/A   Mostly Cloudy
4:35 PM 23.0 °F 13.1 °F 8.6 °F 54% 30.50 in 10.0 mi NNW 9.2 mph - N/A   Mostly Cloudy
4:55 PM 21.2 °F 12.6 °F 10.4 °F 63% 30.50 in 10.0 mi NNW 6.9 mph - N/A   Mostly Cloudy
5:15 PM 21.2 °F 12.6 °F 12.2 °F 68% 30.50 in 10.0 mi NW 6.9 mph - N/A   Mostly Cloudy
5:35 PM 21.2 °F 13.6 °F 14.0 °F 74% 30.50 in 10.0 mi NW 5.8 mph - N/A Snow Light Snow
5:55 PM 19.4 °F 11.5 °F 15.8 °F 86% 30.51 in 5.0 mi WNW 5.8 mph - N/A Snow Light Snow
6:15 PM 19.4 °F 12.8 °F 15.8 °F 86% 30.51 in 10.0 mi WNW 4.6 mph - N/A   Mostly Cloudy
6:35 PM 17.6 °F 10.7 °F 14.0 °F 86% 30.51 in 10.0 mi West 4.6 mph - N/A   Mostly Cloudy
6:55 PM 17.6 °F - 14.0 °F 86% 30.52 in 10.0 mi Calm Calm - N/A   Mostly Cloudy
7:15 PM 17.6 °F 10.7 °F 14.0 °F 86% 30.52 in 10.0 mi WNW 4.6 mph - N/A   Mostly Cloudy
7:35 PM 17.6 °F 9.3 °F 12.2 °F 79% 30.52 in 10.0 mi NW 5.8 mph - N/A   Mostly Cloudy
7:55 PM 19.4 °F 11.5 °F 12.2 °F 74% 30.52 in 10.0 mi NW 5.8 mph - N/A   Overcast
8:15 PM 19.4 °F 8.6 °F 14.0 °F 80% 30.52 in 10.0 mi NW 9.2 mph - N/A   Overcast
8:35 PM 21.2 °F 10.1 °F 12.2 °F 68% 30.52 in 10.0 mi NW 10.4 mph - N/A   Overcast
8:55 PM 21.2 °F 8.9 °F 12.2 °F 68% 30.52 in 10.0 mi NW 12.7 mph - N/A   Overcast
9:15 PM 19.4 °F 7.9 °F 12.2 °F 74% 30.52 in 10.0 mi WNW 10.4 mph - N/A   Overcast
9:35 PM 19.4 °F 8.6 °F 12.2 °F 74% 30.52 in 10.0 mi WNW 9.2 mph - N/A   Mostly Cloudy
9:55 PM 19.4 °F 9.5 °F 12.2 °F 74% 30.53 in 10.0 mi WNW 8.1 mph - N/A   Mostly Cloudy
10:15 PM 19.4 °F 9.5 °F 12.2 °F 74% 30.53 in 10.0 mi WNW 8.1 mph - N/A   Mostly Cloudy
10:35 PM 19.4 °F 7.9 °F 12.2 °F 74% 30.53 in 10.0 mi WNW 10.4 mph - N/A   Mostly Cloudy
10:55 PM 17.6 °F 7.3 °F 12.2 °F 79% 30.53 in 10.0 mi WNW 8.1 mph - N/A   Mostly Cloudy
11:15 PM 17.6 °F 7.3 °F 12.2 °F 79% 30.53 in 10.0 mi WNW 8.1 mph - N/A   Partly Cloudy
11:40 PM 17.6 °F 7.3 °F 12.2 °F 79% 30.53 in 10.0 mi WNW 8.1 mph - N/A   Clear
11:55 PM 17.6 °F 7.3 °F 12.2 °F 79% 30.53 in 10.0 mi West 8.1 mph - N/A   Clear